Location: Orange Harbor Mobile Home Park
(26.6923°N, 81.7937°W)
Time: 02:19:48
(UTC+00:00)

Tiangong - Pass Details

Date: 01 July 2021
Orbit: 373 x 386 km, 41.5° (Epoch: 02 August)

Event Time Altitude Azimuth Distance (km) Brightness Sun altitude
Exits shadow 09:03:28 - 316° (NW) 1,518 4.0 -18.5°
Reaches altitude 10° 09:03:49 10° 318° (NW) 1,381 3.8 -18.5°
Maximum altitude 09:06:48 41° 31° (NNE) 555 2.3 -17.9°
Drops below altitude 10° 09:09:47 10° 104° (ESE) 1,385 4.4 -17.4°
Sets 09:11:55 0° 112° (ESE) 2,238 5.4 -17.0°
